This is the latest recevied weather packets stored in our database for station/object N8HON. If no packets are shown the sender has not sent any weather packets the latest 10 day(s).
| Time | Temp. | Humidity | Pressure | Rain* | Wind** | Luminosity | Snow |
|---|---|---|---|---|---|---|---|
| 1778218153 | 7.22° C | 60% | 1012.9 hPa | 0 mm | - | 0 W/m² | - |
| 1778217851 | 7.78° C | 61% | 1012.9 hPa | 0 mm | - | 0 W/m² | - |
| 1778217546 | 7.78° C | 59% | 1012.9 hPa | 0 mm | - | 0 W/m² | - |
| 1778217242 | 7.78° C | 60% | 1013 hPa | 0 mm | - | 0 W/m² | - |
| 1778216938 | 7.78° C | 59% | 1012.9 hPa | 0 mm | - | 0 W/m² | - |
| 1778216636 | 7.78° C | 59% | 1012.9 hPa | 0 mm | - | 0 W/m² | - |
| 1778216331 | 7.78° C | 58% | 1012.8 hPa | 0 mm | - | 0 W/m² | - |
| 1778216030 | 7.78° C | 57% | 1012.9 hPa | 0 mm | - | 0 W/m² | - |
| 1778215727 | 7.78° C | 57% | 1012.8 hPa | 0 mm | - | 0 W/m² | - |
| 1778215423 | 8.33° C | 56% | 1012.9 hPa | 0 mm | - | 0 W/m² | - |
| 1778215119 | 7.78° C | 56% | 1012.5 hPa | 0 mm | - | 0 W/m² | - |
| 1778214817 | 8.33° C | 57% | 1012.6 hPa | 0 mm | - | 0 W/m² | - |
| 1778214513 | 8.33° C | 55% | 1012.6 hPa | 0 mm | - | 0 W/m² | - |
| 1778214211 | 8.33° C | 55% | 1012.4 hPa | 0 mm | - | 0 W/m² | - |
| 1778213907 | 8.89° C | 55% | 1012.6 hPa | 0 mm | - | 0 W/m² | - |
| 1778213604 | 8.33° C | 54% | 1012.3 hPa | 0 mm | - | 0 W/m² | - |
| 1778213301 | 8.33° C | 56% | 1012.2 hPa | 0 mm | - | 0 W/m² | - |
| 1778212998 | 8.33° C | 55% | 1012.2 hPa | 0 mm | - | 0 W/m² | - |
| 1778212695 | 8.89° C | 53% | 1012.1 hPa | 0 mm | - | 0 W/m² | - |
| 1778212392 | 8.89° C | 55% | 1012.3 hPa | 0 mm | - | 0 W/m² | - |
| 1778212089 | 9.44° C | 54% | 1012.2 hPa | 0 mm | - | 0 W/m² | - |
| 1778211786 | 9.44° C | 53% | 1011.8 hPa | 0 mm | - | 0 W/m² | - |
| 1778211483 | 8.89° C | 51% | 1012 hPa | 0 mm | - | 0 W/m² | - |
| 1778211181 | 8.89° C | 56% | 1011.8 hPa | 0 mm | - | 0 W/m² | - |
| 1778210879 | 8.89° C | 53% | 1011.8 hPa | 0 mm | - | 0 W/m² | - |
* Rain latest hour (hover to see other rain measurements)
** Current wind speed in m/s (hover to see current wind gust speed)